Abakan, Russia

7:45 AM +07 on November 14, 2019 (GMT +0700)
Abakan

Weather History for UNAA - September, 2019

Change the Weather History Date:

Thursday, September 12, 2019

  Actual Average Record
Temperature  
Mean Temperature 50 °F -  
Max Temperature 57 °F - - ()
Min Temperature 44 °F - - ()
Degree Days  
Heating Degree Days 14    
Moisture  
Dew Point 38 °F    
Average Humidity 65    
Maximum Humidity 87    
Minimum Humidity 41    
Precipitation  
Precipitation 0.00 in - - ()
Sea Level Pressure  
Sea Level Pressure 30.11 in    
Wind  
Wind Speed 8 mph ()    
Max Wind Speed 13 mph    
Max Gust Speed -    
Visibility 6.2 miles    
Events Rain    
T = Trace of Precipitation, MM = Missing Value Source: Averaged Metar Reports

Daily Weather History Graph

Daily Weather History Graph

Search for Another Location

Airport or City:

Astronomy

Sep. 12, 2019 Rise Set
Actual Time 6:21 AM +07 7:19 PM +07
Civil Twilight 5:45 AM +07 7:55 PM +07
Nautical Twilight 5:02 AM +07 8:38 PM +07
Astronomical Twilight 4:15 AM +07 9:24 PM +07
Moon 7:11 PM +07 (9/12) 3:43 AM +07 (9/12)
Length of Visible Light 14h 09m
Length of Day
12h 57m
Waxing Gibbous, 97% of the Moon is Illuminated
Sep 12
Waxing Gibbous
Sep 14
Full
Sep 22
Last Quarter
Sep 29
New
Oct 5
First Quarter

Hourly Weather History & Observations

Time (+07) Temp. Windchill Dew Point Humidity Pressure Visibility Wind Dir Wind Speed Gust Speed Precip Events Conditions
12:00 AM 51.8 °F - 44.6 °F 76% 29.98 in 6.2 mi SW 8.9 mph - N/A Rain Light Rain Showers
12:30 AM 51.8 °F - 44.6 °F 76% 29.98 in 6.2 mi SW 8.9 mph - N/A   Scattered Clouds
1:00 AM 51.8 °F - 42.8 °F 71% 29.98 in 6.2 mi WSW 11.2 mph - N/A Rain Light Rain Showers
1:30 AM 51.8 °F - 41.0 °F 67% 30.01 in 6.2 mi WSW 8.9 mph - N/A Rain Light Rain Showers
2:00 AM 50.0 °F - 41.0 °F 71% 30.01 in 6.2 mi WSW 11.2 mph - N/A   Scattered Clouds
2:30 AM 50.0 °F - 41.0 °F 71% 30.01 in 6.2 mi NW 6.7 mph - N/A   Scattered Clouds
3:30 AM 48.2 °F - 42.8 °F 82% 30.04 in 6.2 mi NNE 6.7 mph - N/A   Scattered Clouds
4:00 AM 46.4 °F 43.0 °F 42.8 °F 87% 30.06 in 6.2 mi NNE 6.7 mph - N/A   Scattered Clouds
5:00 AM 44.6 °F 42.3 °F 41.0 °F 87% 30.06 in 6.2 mi North 4.5 mph - N/A   Scattered Clouds
5:30 AM 46.4 °F - 41.0 °F 81% 30.09 in 6.2 mi Calm Calm - N/A   Scattered Clouds
6:00 AM 46.4 °F - 41.0 °F 81% 30.09 in 6.2 mi Calm Calm - N/A   Mostly Cloudy
6:30 AM 46.4 °F - 41.0 °F 81% 30.09 in 6.2 mi Calm Calm - N/A   Mostly Cloudy
7:00 AM 46.4 °F 44.4 °F 41.0 °F 81% 30.09 in 6.2 mi SSE 4.5 mph - N/A   Scattered Clouds
7:30 AM 46.4 °F 44.4 °F 41.0 °F 81% 30.12 in 6.2 mi South 4.5 mph - N/A   Scattered Clouds
8:00 AM 48.2 °F - 39.2 °F 71% 30.12 in 6.2 mi SSW 6.7 mph - N/A   Scattered Clouds
8:30 AM 48.2 °F - 41.0 °F 76% 30.12 in 6.2 mi SW 6.7 mph - N/A   Scattered Clouds
9:00 AM 48.2 °F - 41.0 °F 76% 30.12 in - SW 8.9 mph - N/A   Clear
9:30 AM 50.0 °F - 41.0 °F 71% 30.15 in - WSW 8.9 mph - N/A   Clear
10:00 AM 50.0 °F - 39.2 °F 66% 30.15 in - WSW 11.2 mph - N/A   Clear
10:30 AM 51.8 °F - 39.2 °F 62% 30.15 in - WSW 11.2 mph - N/A   Clear
11:00 AM 51.8 °F - 39.2 °F 62% 30.15 in - WSW 11.2 mph - N/A   Clear
11:30 AM 53.6 °F - 39.2 °F 58% 30.15 in - WSW 8.9 mph - N/A   Clear
12:00 PM 55.4 °F - 37.4 °F 51% 30.12 in 6.2 mi WSW 11.2 mph - N/A Rain Light Rain Showers
12:30 PM 48.2 °F - 42.8 °F 82% 30.12 in 6.2 mi WSW 6.7 mph - N/A Rain Light Rain Showers
1:00 PM 50.0 °F - 42.8 °F 76% 30.12 in 5.6 mi WSW 8.9 mph - N/A   Scattered Clouds
1:30 PM 55.4 °F - 44.6 °F 67% 30.12 in - WSW 6.7 mph - N/A   Clear
2:00 PM 55.4 °F - 41.0 °F 58% 30.12 in - West 11.2 mph - N/A   Clear
2:30 PM 53.6 °F - 41.0 °F 62% 30.12 in - North 8.9 mph - N/A   Clear
3:00 PM 57.2 °F - 39.2 °F 51% 30.12 in - North 4.5 mph - N/A   Clear
3:30 PM 55.4 °F - 39.2 °F 54% 30.12 in - North 6.7 mph - N/A   Clear
4:00 PM 55.4 °F - 32.0 °F 41% 30.12 in - WNW 13.4 mph - N/A   Clear
4:30 PM 53.6 °F - 33.8 °F 47% 30.12 in - West 8.9 mph - N/A   Clear
5:00 PM 53.6 °F - 33.8 °F 47% 30.15 in - WSW 11.2 mph - N/A   Clear
5:30 PM 51.8 °F - 33.8 °F 50% 30.15 in - West 11.2 mph - N/A   Clear
6:00 PM 51.8 °F - 35.6 °F 54% 30.15 in - West 13.4 mph - N/A   Clear
6:30 PM 50.0 °F - 33.8 °F 54% 30.15 in - WSW 11.2 mph - N/A   Clear
7:00 PM 50.0 °F - 33.8 °F 54% 30.15 in - WSW 11.2 mph - N/A   Clear
7:30 PM 50.0 °F - 33.8 °F 54% 30.15 in - West 13.4 mph - N/A   Clear
8:00 PM 50.0 °F - 28.4 °F 43% 30.15 in - West 11.2 mph - N/A   Clear
8:30 PM 48.2 °F - 33.8 °F 58% 30.18 in - WSW 8.9 mph - N/A   Clear
9:00 PM 48.2 °F - 33.8 °F 58% 30.18 in - WSW 8.9 mph - N/A   Clear
9:30 PM 48.2 °F - 33.8 °F 58% 30.18 in - WSW 11.2 mph - N/A   Clear
10:00 PM 48.2 °F - 32.0 °F 54% 30.18 in 6.2 mi WSW 13.4 mph - N/A   Scattered Clouds
10:30 PM 48.2 °F - 32.0 °F 54% 30.18 in 6.2 mi West 13.4 mph - N/A   Scattered Clouds
11:00 PM 48.2 °F - 32.0 °F 54% 30.18 in 6.2 mi WSW 13.4 mph - N/A   Scattered Clouds
11:30 PM 46.4 °F 41.2 °F 33.8 °F 62% 30.15 in 6.2 mi SW 11.2 mph - N/A   Scattered Clouds